| time (UTC) | temp F | wind direction | speed knots | gust knots | rain 1hr in | rain 24hr in | rain mn in | humidity % | barometer mb |
| 20260507094830 | 51 | 330 | 1.7 | 7.0 | 0.00 | 0.00 | 0.00 | 83 | 1021.5 |
| 20260507093304 | 51 | 340 | 2.6 | 6.1 | 0.00 | 0.00 | 0.00 | 83 | 1021.6 |
| 20260507093123 | 51 | 340 | 2.6 | 6.1 | 0.00 | 0.00 | 0.00 | 83 | 1021.6 |
| 20260507092240 | 52 | 328 | 1.7 | 6.1 | 0.00 | 0.00 | 0.00 | 83 | 1021.7 |
| 20260507091404 | 52 | 300 | 0.9 | 2.6 | 0.00 | 0.00 | 0.00 | 84 | 1021.7 |
| 20260507090555 | 52 | 327 | 0.9 | 4.3 | 0.00 | 0.00 | 0.00 | 84 | 1021.7 |
| 20260507085559 | 52 | 321 | 0.9 | 4.3 | 0.00 | 0.00 | 0.00 | 84 | 1021.7 |
| 20260507084605 | 52 | 325 | 1.7 | 4.3 | 0.00 | 0.00 | 0.00 | 84 | 1021.7 |
| 20260507083655 | 52 | 336 | 0.9 | 3.5 | 0.00 | 0.00 | 0.00 | 84 | 1021.8 |
| 20260507082745 | 52 | 336 | 1.7 | 4.3 | 0.00 | 0.00 | 0.00 | 84 | 1021.8 |
| 20260507081914 | 52 | 1 | 0.9 | 3.5 | 0.00 | 0.00 | 0.00 | 85 | 1021.7 |
| 20260507080035 | 52 | 301 | 0.0 | 1.7 | 0.00 | 0.00 | 0.00 | 85 | 1021.8 |
| 20260507075229 | 52 | 333 | 1.7 | 4.3 | 0.00 | 0.00 | 0.00 | 85 | |
| 20260507075225 | 52 | 333 | 1.7 | 4.3 | 0.00 | 0.00 | 0.00 | 85 | 1021.8 |
| 20260507074350 | 52 | 336 | 1.7 | 5.2 | 0.00 | 0.00 | 0.00 | 85 | 1021.8 |
| 20260507073454 | 52 | 353 | 1.7 | 4.3 | 0.00 | 0.00 | 0.00 | 85 | 1021.7 |
| 20260507072635 | 52 | 335 | 2.6 | 8.7 | 0.00 | 0.00 | 0.00 | 85 | 1021.7 |
| 20260507071747 | 52 | 324 | 1.7 | 6.1 | 0.00 | 0.00 | 0.00 | 85 | 1021.6 |
| 20260507070750 | 52 | 347 | 0.9 | 6.1 | 0.00 | 0.00 | 0.00 | 85 | 1021.6 |
| 20260507065020 | 52 | 357 | 1.7 | 7.0 | 0.00 | 0.00 | 0.00 | 85 | 1021.6 |
| 20260507064113 | 52 | 331 | 1.7 | 7.0 | 0.00 | 0.00 | 0.00 | 84 | 1021.6 |
| 20260507063313 | 53 | 348 | 3.5 | 10.4 | 0.00 | 0.00 | 0.00 | 84 | 1021.6 |
| 20260507062334 | 53 | 347 | 4.3 | 8.7 | 0.00 | 0.00 | 0.00 | 84 | 1021.6 |
| 20260507061346 | 53 | 341 | 3.5 | 0.0 | 0.00 | 0.00 | 0.00 | 84 | 1021.5 |
| 20260507061344 | 53 | 341 | 3.5 | 10.4 | 0.00 | 0.00 | 0.00 | 84 | 1021.5 |
| 20260507060547 | 53 | 337 | 2.6 | 6.1 | 0.00 | 0.00 | 0.00 | 84 | 1021.6 |
| 20260507055735 | 53 | 348 | 3.5 | 8.7 | 0.00 | 0.00 | 0.00 | 84 | 1021.6 |
| 20260507054738 | 53 | 343 | 4.3 | 8.7 | 0.00 | 0.00 | 0.00 | 84 | 1021.6 |
| 20260507053835 | 53 | 343 | 5.2 | 12.2 | 0.00 | 0.00 | 0.00 | 83 | 1021.5 |
| 20260507052920 | 54 | 340 | 5.2 | 13.0 | 0.00 | 0.00 | 0.00 | 83 | 1021.4 |
| 20260507051032 | 54 | 352 | 4.3 | 10.4 | 0.00 | 0.00 | 0.00 | 83 | 1021.5 |
| 20260507050115 | 54 | 350 | 4.3 | 11.3 | 0.00 | 0.00 | 0.00 | 82 | 1021.6 |
| 20260507045226 | 54 | 351 | 3.5 | 11.3 | 0.00 | 0.00 | 0.00 | 82 | 1021.6 |
| 20260507044425 | 54 | 352 | 6.1 | 10.4 | 0.00 | 0.00 | 0.00 | 82 | 1021.6 |
| 20260507043445 | 55 | 356 | 5.2 | 8.7 | 0.00 | 0.00 | 0.00 | 82 | 1021.4 |
| 20260507042643 | 55 | 347 | 4.3 | 10.4 | 0.00 | 0.00 | 0.00 | 81 | 1021.3 |
| 20260507041707 | 56 | 348 | 6.1 | 11.3 | 0.00 | 0.00 | 0.00 | 81 | 1021.3 |
| 20260507040754 | 56 | 335 | 4.3 | 9.6 | 0.00 | 0.00 | 0.00 | 81 | 1021.2 |
| 20260507035815 | 56 | 350 | 2.6 | 6.1 | 0.00 | 0.00 | 0.00 | 81 | 1021.0 |
| 20260507034918 | 57 | 349 | 3.5 | 8.7 | 0.00 | 0.00 | 0.00 | 81 | 1020.8 |
| 20260507033154 | 57 | 348 | 2.6 | 10.4 | 0.00 | 0.00 | 0.00 | 81 | 1020.7 |
| 20260507032250 | 57 | 333 | 4.3 | 7.8 | 0.00 | 0.00 | 0.00 | 81 | 1020.5 |
| 20260507031405 | 57 | 341 | 2.6 | 7.0 | 0.00 | 0.00 | 0.00 | 81 | 1020.4 |
| 20260507030432 | 58 | 348 | 3.5 | 7.8 | 0.00 | 0.00 | 0.00 | 80 | 1020.3 |
| 20260507025617 | 58 | 2 | 3.5 | 7.8 | 0.00 | 0.00 | 0.00 | 80 | 1020.2 |
| 20260507024645 | 59 | 6 | 3.5 | 7.8 | 0.00 | 0.00 | 0.00 | 79 | 1020.2 |
| 20260507023800 | 60 | 356 | 3.5 | 7.8 | 0.00 | 0.00 | 0.00 | 78 | 1020.2 |
| 20260507022803 | 61 | 7 | 3.5 | 7.0 | 0.00 | 0.00 | 0.00 | 76 | 1020.1 |
| 20260507021048 | 61 | 344 | 3.5 | 7.0 | 0.00 | 0.00 | 0.00 | 76 | 1020.2 |
| 20260507020125 | 61 | 342 | 3.5 | 7.0 | 0.00 | 0.00 | 0.00 | 76 | 1020.3 |
| 20260507015246 | 62 | 13 | 3.5 | 8.7 | 0.00 | 0.00 | 0.00 | 76 | 1020.3 |
| 20260507014310 | 62 | 339 | 3.5 | 8.7 | 0.00 | 0.00 | 0.00 | 75 | 1020.4 |
| 20260507013440 | 63 | 350 | 2.6 | 9.6 | 0.00 | 0.00 | 0.00 | 75 | 1020.3 |
| 20260507012640 | 63 | 341 | 3.5 | 7.8 | 0.00 | 0.00 | 0.00 | 75 | 1020.2 |
| 20260507011807 | 64 | 339 | 3.5 | 8.7 | 0.00 | 0.00 | 0.00 | 74 | 1020.3 |
| 20260507010945 | 64 | 330 | 3.5 | 7.0 | 0.00 | 0.00 | 0.00 | 75 | 1020.3 |
| 20260507005039 | 65 | 349 | 3.5 | 6.1 | 0.00 | 0.00 | 0.00 | 75 | 1020.2 |
| 20260507004135 | 65 | 352 | 2.6 | 7.0 | 0.00 | 0.00 | 0.00 | 74 | 1020.2 |
| 20260507003315 | 66 | 352 | 2.6 | 6.1 | 0.00 | 0.00 | 0.00 | 72 | 1020.2 |
| 20260507002319 | 66 | 38 | 1.7 | 5.2 | 0.00 | 0.00 | 0.00 | 72 | 1020.2 |
| 20260507001412 | 65 | 35 | 1.7 | 5.2 | 0.00 | 0.00 | 0.00 | 71 | 1020.2 |
| 20260507000537 | 66 | 329 | 2.6 | 5.2 | 0.00 | 0.00 | 0.00 | 70 | 1020.2 |
| 20260506235634 | 66 | 322 | 1.7 | 3.5 | 0.00 | 0.00 | 0.00 | 70 | 1020.1 |
| 20260506234820 | 67 | 355 | 1.7 | 6.1 | 0.00 | 0.00 | 0.00 | 69 | 1020.2 |
| 20260506233045 | 67 | 249 | 0.0 | 1.7 | 0.00 | 0.00 | 0.00 | 70 | 1020.2 |
| 20260506232108 | 66 | 248 | 0.9 | 1.7 | 0.00 | 0.00 | 0.00 | 71 | 1020.3 |
| 20260506231245 | 65 | 320 | 0.9 | 3.5 | 0.00 | 0.00 | 0.00 | 72 | 1020.4 |
| 20260506230342 | 65 | 276 | 0.0 | 0.9 | 0.00 | 0.00 | 0.00 | 71 | 1020.6 |
| 20260506225442 | 64 | 23 | 0.0 | 0.9 | 0.00 | 0.00 | 0.00 | 74 | 1020.7 |
| 20260506225420 | 64 | 23 | 0.0 | 0.9 | 0.00 | 0.00 | 0.00 | 74 | 1020.7 |
| 20260506224530 | 64 | 315 | 0.9 | 4.3 | 0.00 | 0.00 | 0.00 | 73 | 1020.7 |
| 20260506223725 | 63 | 326 | 0.9 | 2.6 | 0.00 | 0.00 | 0.00 | 74 | 1020.8 |
| 20260506222915 | 63 | 329 | 1.7 | 3.5 | 0.00 | 0.00 | 0.00 | 76 | 1020.9 |
| 20260506221115 | 63 | 290 | 1.7 | 3.5 | 0.00 | 0.00 | 0.00 | 76 | 1020.9 |
| 20260506220223 | 63 | 307 | 1.7 | 5.2 | 0.00 | 0.00 | 0.00 | 76 | 1020.8 |
| 20260506215419 | 63 | 317 | 0.9 | 3.5 | 0.00 | 0.00 | 0.00 | 75 | 1020.7 |
| 20260506214454 | 64 | 41 | 0.9 | 2.6 | 0.00 | 0.00 | 0.00 | 76 | 1020.9 |
| 20260506213527 | 63 | 38 | 0.9 | 3.5 | 0.00 | 0.00 | 0.00 | 76 | 1021.1 |
| 20260506212608 | 63 | 326 | 0.9 | 2.6 | 0.00 | 0.00 | 0.00 | 77 | 1021.3 |
| 20260506211630 | 63 | 295 | 0.9 | 2.6 | 0.00 | 0.00 | 0.00 | 77 | 1021.3 |
| 20260506210739 | 62 | 174 | 0.0 | 1.7 | 0.00 | 0.00 | 0.00 | 78 | 1021.3 |
| 20260506205040 | 62 | 124 | 0.9 | 2.6 | 0.00 | 0.00 | 0.00 | 78 | 1021.2 |
| 20260506204105 | 62 | 216 | 0.9 | 2.6 | 0.00 | 0.00 | 0.00 | 80 | 1021.2 |
| 20260506203135 | 61 | 217 | 0.9 | 3.5 | 0.00 | 0.00 | 0.00 | 81 | 1021.2 |
| 20260506202157 | 60 | 260 | 0.9 | 4.3 | 0.00 | 0.00 | 0.00 | 82 | 1021.3 |
| 20260506201209 | 60 | 226 | 0.9 | 3.5 | 0.00 | 0.00 | 0.00 | 82 | 1021.4 |
| 20260506200405 | 60 | 276 | 1.7 | 4.3 | 0.00 | 0.00 | 0.00 | 82 | 1021.5 |
| 20260506195518 | 60 | 218 | 0.9 | 3.5 | 0.00 | 0.00 | 0.00 | 82 | 1021.6 |
| 20260506194529 | 60 | 293 | 1.7 | 5.2 | 0.00 | 0.00 | 0.00 | 82 | 1021.7 |
| 20260506193538 | 60 | 258 | 1.7 | 4.3 | 0.00 | 0.00 | 0.00 | 81 | 1021.6 |
| 20260506192713 | 60 | 321 | 0.9 | 3.5 | 0.00 | 0.00 | 0.00 | 81 | 1021.4 |
| 20260506191015 | 61 | 221 | 1.7 | 4.3 | 0.00 | 0.00 | 0.00 | 81 | 1021.5 |
| 20260506190115 | 60 | 133 | 0.9 | 4.3 | 0.00 | 0.00 | 0.00 | 81 | 1021.5 |
| 20260506185245 | 60 | 187 | 0.9 | 3.5 | 0.00 | 0.00 | 0.00 | 83 | 1021.4 |
| 20260506184357 | 59 | 159 | 0.9 | 2.6 | 0.00 | 0.00 | 0.00 | 85 | 1021.4 |
| 20260506183514 | 58 | 206 | 0.0 | 1.7 | 0.00 | 0.00 | 0.00 | 86 | 1021.5 |
| 20260506182530 | 58 | 214 | 0.0 | 1.7 | 0.00 | 0.00 | 0.00 | 86 | 1021.4 |
| 20260506181710 | 57 | 0.0 | 0.0 | 0.00 | 0.00 | 0.00 | 87 | 1021.5 | |
| 20260506180835 | 57 | 218 | 0.0 | 1.7 | 0.00 | 0.00 | 0.00 | 87 | 1021.5 |
| 20260506175130 | 57 | 288 | 0.0 | 1.7 | 0.00 | 0.00 | 0.00 | 87 | 1021.4 |
| 20260506174150 | 57 | 253 | 0.0 | 1.7 | 0.00 | 0.00 | 0.00 | 86 | 1021.2 |
| 20260506173228 | 57 | 258 | 0.9 | 2.6 | 0.00 | 0.00 | 0.00 | 86 | 1021.1 |
| 20260506172243 | 56 | 216 | 0.0 | 0.9 | 0.00 | 0.00 | 0.00 | 87 | 1021.0 |
| 20260506171348 | 56 | 295 | 0.9 | 2.6 | 0.00 | 0.00 | 0.00 | 87 | 1021.2 |
| 20260506170415 | 56 | 313 | 0.9 | 3.5 | 0.00 | 0.00 | 0.00 | 87 | 1021.2 |
| 20260506165615 | 57 | 298 | 0.9 | 2.6 | 0.00 | 0.00 | 0.00 | 86 | 1021.0 |
| 20260506164809 | 57 | 325 | 0.9 | 3.5 | 0.00 | 0.00 | 0.00 | 87 | 1021.1 |
| 20260506163818 | 56 | 343 | 0.0 | 1.7 | 0.00 | 0.00 | 0.00 | 87 | 1020.8 |
| 20260506162931 | 56 | 249 | 0.0 | 1.7 | 0.00 | 0.00 | 0.00 | 87 | 1020.7 |
| 20260506161105 | 56 | 110 | 0.0 | 2.6 | 0.00 | 0.00 | 0.00 | 87 | 1020.6 |
| 20260506160307 | 55 | 78 | 0.0 | 3.5 | 0.00 | 0.00 | 0.00 | 89 | 1020.5 |
| 20260506155307 | 54 | 103 | 2.6 | 4.3 | 0.00 | 0.00 | 0.00 | 89 | 1020.1 |
| 20260506154435 | 54 | 0 | 0.0 | 3.5 | 0.00 | 0.00 | 0.00 | 89 | 1020.8 |
| 20260506153555 | 54 | 347 | 0.9 | 4.3 | 0.00 | 0.00 | 0.00 | 89 | 1021.0 |
| 20260506152756 | 54 | 7 | 0.9 | 3.5 | 0.00 | 0.00 | 0.00 | 90 | 1021.1 |
| 20260506151805 | 54 | 340 | 2.6 | 6.1 | 0.00 | 0.00 | 0.00 | 90 | 1021.0 |
| 20260506150927 | 54 | 341 | 3.5 | 6.1 | 0.00 | 0.00 | 0.00 | 90 | 1020.8 |
| 20260506145059 | 54 | 333 | 1.7 | 6.1 | 0.00 | 0.00 | 0.00 | 90 | 1020.8 |
| 20260506144100 | 54 | 335 | 2.6 | 5.2 | 0.00 | 0.00 | 0.00 | 90 | 1020.6 |
| 20260506143104 | 54 | 11 | 0.9 | 2.6 | 0.00 | 0.00 | 0.00 | 90 | 1020.3 |
| 20260506142150 | 54 | 331 | 0.0 | 1.7 | 0.00 | 0.00 | 0.00 | 90 | 1020.1 |
| 20260506141200 | 54 | 342 | 0.0 | 1.7 | 0.00 | 0.00 | 0.00 | 90 | 1020.2 |
| 20260506140320 | 54 | 0.0 | 0.0 | 0.00 | 0.00 | 0.00 | 90 | 1020.2 | |
| 20260506135322 | 54 | 0.0 | 0.0 | 0.00 | 0.00 | 0.00 | 90 | 1020.1 | |
| 20260506134405 | 54 | 0.0 | 0.0 | 0.00 | 0.00 | 0.00 | 90 | 1019.9 | |
| 20260506133504 | 54 | 0.0 | 0.0 | 0.00 | 0.00 | 0.00 | 91 | 1019.9 | |
| 20260506132550 | 54 | 0.0 | 0.0 | 0.00 | 0.00 | 0.00 | 91 | 1019.7 | |
| 20260506131727 | 54 | 0.0 | 0.0 | 0.00 | 0.00 | 0.00 | 90 | 1019.7 | |
| 20260506130854 | 54 | 0.0 | 0.0 | 0.00 | 0.00 | 0.00 | 90 | 1019.5 | |
| 20260506125855 | 54 | 0.0 | 0.0 | 0.00 | 0.00 | 0.00 | 90 | 1019.5 | |
| 20260506124955 | 54 | 0.0 | 0.0 | 0.00 | 0.00 | 0.00 | 90 | 1019.5 | |
| 20260506123226 | 54 | 335 | 0.0 | 3.5 | 0.00 | 0.00 | 0.00 | 90 | 1019.6 |
| 20260506123154 | 54 | 335 | 0.0 | 3.5 | 0.00 | 0.00 | 0.00 | 90 | 1019.6 |
| 20260506122223 | 54 | 331 | 1.7 | 4.3 | 0.00 | 0.00 | 0.00 | 90 | 1019.5 |
| 20260506121305 | 54 | 330 | 1.7 | 5.2 | 0.00 | 0.00 | 0.00 | 90 | 1019.5 |
| 20260506120409 | 54 | 331 | 1.7 | 5.2 | 0.00 | 0.00 | 0.00 | 89 | 1019.3 |
| 20260506115419 | 54 | 340 | 2.6 | 5.2 | 0.00 | 0.00 | 0.00 | 89 | 1019.2 |
| 20260506114455 | 54 | 332 | 2.6 | 7.0 | 0.00 | 0.00 | 0.00 | 89 | 1019.1 |
| 20260506113614 | 54 | 337 | 2.6 | 5.2 | 0.00 | 0.00 | 0.00 | 89 | 1019.1 |
| 20260506112723 | 54 | 332 | 1.7 | 5.2 | 0.00 | 0.00 | 0.00 | 89 | 1019.0 |
| 20260506111730 | 54 | 322 | 1.7 | 4.3 | 0.00 | 0.00 | 0.00 | 89 | 1018.9 |
| 20260506110905 | 55 | 319 | 1.7 | 5.2 | 0.00 | 0.00 | 0.00 | 89 | 1018.8 |
| 20260506105049 | 55 | 328 | 1.7 | 4.3 | 0.00 | 0.00 | 0.00 | 89 | 1018.6 |
| 20260506104205 | 55 | 333 | 0.9 | 3.5 | 0.00 | 0.00 | 0.00 | 89 | 1018.5 |
| 20260506103355 | 55 | 340 | 0.9 | 3.5 | 0.00 | 0.00 | 0.00 | 88 | 1018.4 |
| 20260506102455 | 55 | 349 | 0.0 | 1.7 | 0.00 | 0.00 | 0.00 | 88 | 1018.3 |
| 20260506101639 | 55 | 340 | 0.0 | 1.7 | 0.00 | 0.00 | 0.00 | 88 | 1018.2 |
| 20260506101545 | 55 | 340 | 0.0 | 1.7 | 0.00 | 0.00 | 0.00 | 88 | 1018.2 |
| 20260506100610 | 56 | 12 | 0.0 | 1.7 | 0.00 | 0.00 | 0.00 | 88 | 1018.2 |